Orbital Elements at Epoch 2459000.5 (2020-May-31.0) TDB
Reference: JPL 39 (heliocentric ecliptic J2000)
Element | Value | Uncertainty (1-sigma) | Units |
e | .02348411336262165 | 3.7123e-08 | |
a | 3.170518696063049 | 1.7153e-08 | au |
q | 3.096061875586393 | 1.1668e-07 | au |
i | 9.195131042115859 | 4.102e-06 | deg |
node | 222.2812181914116 | 2.1632e-05 | deg |
peri | 129.9519708249615 | 7.9882e-05 | deg |
M | 43.15956639076815 | 7.5948e-05 | deg |
tp | 2458753.288609916887 (2019-Sep-26.78860992) | 0.0004354 | TDB |
period | 2062.024896731982 5.65 | 1.6734e-05 4.582e-08 | d yr |
n | .174585670895899 | 1.4168e-09 | deg/d |
Q | 3.244975516539705 | 1.7556e-08 | au |
|
| | Orbit Determination Parameters
Additional Information
|